Tracking 30995 objects as of 6-Jul-2025
HD Live streaming from Space Station
objects crossing your sky now

PEGASUS DEB

Track PEGASUS DEB now!
10-day predictions


NORAD ID: 24091
Int'l Code: 1994-029EN
Perigee: 519.1 km
Apogee: 609.3 km
Inclination: 82.0 °
Period: 95.8 minutes
Semi major axis: 6935 km
RCS: 0.0602 m2 (small)
Launch date: May 19, 1994
Source: United States (US)
Launch site: AIR FORCE WESTERN TEST RANGE (AFWTR)

Note: This is SATELLITE DEBRIS
Your satellite tracking list
Your tracking list is empty




NASA's NSSDC Master Catalog

Two Line Element Set (TLE):
1 24091U 94029EN  25186.56971620  .00002491  00000-0  17405-3 0  9994
2 24091  81.9938  15.4969 0065068 274.6296 149.8759 15.03195088578150
Source of the keplerian elements: AFSPC